Location: Unspecified
(43.9500°N, 64.7900°W)
Time: 12:17:04
(UTC-03:00)

OTV 5 (USA 277) - Visible Passes

Search period start: 20 August 2018 00:00
Search period end: 30 August 2018 00:00
Orbit: 322 x 329 km, 54.5° (Epoch: 19 August)

Date Brightness Start Highest point End Pass type
(mag) Time Alt. Az. Time Alt. Az. Time Alt. Az.
20 Aug ? 21:07:18 10° SW 21:10:05 77° NW 21:12:53 10° NE visible
20 Aug ? 22:43:14 10° WNW 22:44:59 15° NNW 22:46:14 12° NNE visible
21 Aug ? 21:24:58 10° W 21:27:30 31° NNW 21:30:03 10° NE visible
21 Aug ? 23:01:46 10° NNW 23:02:42 11° N 23:03:07 11° N visible
22 Aug ? 21:43:04 10° WNW 21:45:03 17° NNW 21:47:02 10° NNE visible
23 Aug ? 22:01:30 10° NW 22:02:44 12° NNW 22:03:57 10° NNE visible
24 Aug ? 20:42:56 10° WNW 20:45:08 20° NNW 20:47:21 10° NNE visible
24 Aug ? 22:20:11 10° N 22:20:29 10° N 22:20:46 10° N visible
25 Aug ? 21:01:16 10° NW 21:02:47 13° NNW 21:04:17 10° NNE visible
25 Aug ? 22:37:45 10° N 22:38:15 10° N 22:38:24 10° N visible
26 Aug ? 21:19:51 10° NNW 21:20:30 11° N 21:21:08 10° N visible
26 Aug ? 22:54:36 10° NNW 22:54:52 11° N 22:54:52 11° N visible
27 Aug ? 21:38:10 10° N 21:38:17 10° N 21:38:23 10° N visible
28 Aug ? 21:54:55 10° NNW 21:56:02 12° N 21:56:46 11° NNE visible
29 Aug ? 22:11:49 10° NNW 22:13:14 16° N 22:13:14 16° N visible
